Location: Kalamazoo
(42.2920°N, 85.5870°W)
Time: 23:36:32
(UTC-04:00)

Daily predictions for brighter satellites

Satellite Brightness Start Highest point End
(mag) Time Altitude Azimuth Time Altitude Azimuth Time Altitude Azimuth
Spot 1 4.0 21:51:58 10° SSE 21:56:03 82° ENE 22:00:20 10° NNW
Tiangong 1 0.9 21:53:24 10° W 21:56:14 78° N 21:59:02 10° E
Abrixas 4.1 22:06:01 10° SSE 22:07:21 13° SE 22:08:42 10° ESE
NOAA 11 4.5 22:02:56 10° SSE 22:08:11 54° ENE 22:13:30 10° N
Okean 3 Rocket 3.6 22:04:11 10° S 22:08:40 89° WSW 22:13:10 10° N
CZ-4B DEB 2.7 22:06:03 10° S 22:09:01 73° WSW 22:11:59 10° NNW
Cosmos 2016 Rocket 4.3 22:05:39 10° N 22:11:43 50° ENE 22:17:40 10° SSE
Cosmos 1741 Rocket 4.3 22:06:37 10° SSW 22:11:56 74° WNW 22:17:15 10° NNE
H-2A R/B 3.3 22:08:13 10° ESE 22:12:42 28° ENE 22:17:16 10° N
Helios 1B rocket 2.8 22:09:32 10° N 22:13:41 69° WNW 22:17:47 10° SSW
Cosmos 2227 4.3 22:09:13 10° S 22:14:48 57° ESE 22:20:24 10° NNE
Cosmos 1766 Rocket 3.7 22:13:09 10° S 22:17:21 53° E 22:21:36 10° NNE
Cosmos 1818 4.2 22:13:16 10° NW 22:18:32 52° WSW 22:23:45 10° SSE
MetOp-B 4.3 22:14:32 10° SSE 22:19:46 59° ENE 22:25:02 10° N
YAOGAN 6 3.1 22:16:41 10° S 22:20:17 61° W 22:23:58 10° NNW
Cosmos 1328 Rocket 4.5 22:16:46 10° NNE 22:20:40 31° ENE 22:23:58 13° SE
Cosmos 2084 4.3 22:17:01 10° SW 22:20:53 49° NW 22:24:37 10° NNE
ERBS 3.2 22:19:41 10° NNW 22:22:55 39° NE 22:25:48 12° ESE
Cosmos 371 Rocket 4.0 22:18:45 10° N 22:23:19 40° ENE 22:27:15 13° SE
Cosmos 1626 4.3 22:24:17 10° E 22:25:12 11° E 22:26:06 10° ENE
Cosmos 2297 Rocket 4.5 22:22:00 10° WSW 22:26:51 29° NW 22:31:44 10° N
Helios 1A 4.3 22:23:46 10° SSW 22:27:36 37° W 22:31:29 10° NNW
Cosmos 1726 2.5 22:25:01 10° N 22:28:35 47° ENE 22:31:25 15° SSE
USA 245 3.8 22:28:04 15° SE 22:30:50 47° ENE 22:35:04 10° N
Cosmos 1743 Rocket 4.2 22:29:55 13° SSE 22:33:20 35° E 22:37:17 10° NNE
H-2A R/B 4.2 22:31:16 10° E 22:33:23 14° ENE 22:35:30 10° NNE
Cosmos 2263 Rocket 3.1 22:29:13 10° SSE 22:33:49 28° ESE 22:38:29 10° NE
GPS 2-05 Rocket1 4.2 22:32:25 10° SSW 22:34:30 17° SSE 22:34:46 17° SSE
ATLAS 5 CENTAUR R/B 3.4 22:31:28 10° WSW 22:35:53 39° NW 22:40:43 10° NNE
YAOGAN 11 4.4 22:32:08 14° SSE 22:35:55 58° ENE 22:40:26 10° N
Cosmos 1300 3.1 22:34:36 10° N 22:38:21 48° E 22:40:56 18° SSE
Lacrosse 5 1.9 22:34:10 10° NW 22:39:16 85° SW 22:43:10 17° SE
SPOT 5 3.1 22:35:37 14° SSE 22:39:46 64° ENE 22:44:51 10° N
Cosmos 1356 Rocket 4.2 22:36:06 10° SSW 22:40:16 55° WNW 22:44:31 10° N
Cosmos 2228 Rocket 3.5 22:36:56 10° N 22:41:24 49° ENE 22:44:39 17° SSE
Cosmos 1814 Rocket 4.1 22:38:52 10° NNW 22:44:13 68° ENE 22:48:13 17° SSE
Abrixas rocket 2.3 22:42:36 10° WNW 22:45:51 72° NNE 22:47:59 20° ESE
SL-14 R/B 3.3 22:44:49 14° S 22:48:09 59° E 22:52:02 10° NNE
Cosmos 1459 Rocket 4.5 22:42:37 10° NNW 22:48:48 61° W 22:54:53 10° S
Cosmos 2058 4.0 22:47:51 19° SE 22:49:49 28° E 22:53:26 10° NNE
Cosmos 841 Rocket 4.0 22:46:43 10° N 22:51:49 48° ENE 22:55:13 20° SE
Cosmos 1763 Rocket 3.6 22:47:28 10° NNW 22:52:33 62° ENE 22:55:57 20° SE
RESURS DK-1 2.6 22:48:42 10° NNW 22:52:51 67° WSW 22:55:44 19° SSE
Cosmos 1486 Rocket 4.1 22:48:17 10° S 22:53:24 56° ESE 22:58:36 10° NNE
Cosmos 220 Rocket 3.9 22:49:27 10° SSW 22:53:50 74° ESE 22:58:13 10° NNE
EO 1 Delta rocket 3.9 22:51:25 18° SSE 22:54:50 66° ENE 22:59:29 10° N
Landsat 7 4.4 22:51:51 19° SE 22:54:51 43° ENE 22:59:21 10° N
SL-08 RB Rocket 3.7 22:53:52 18° SSE 22:57:16 85° ENE 23:01:55 10° NNW
Cosmos 1328 3.7 22:56:12 14° S 22:59:35 81° E 23:03:38 10° N
H-2A ROCKET BODY 3.9 22:56:27 10° SSW 23:00:10 21° SE 23:09:05 10° E
Meteor 2-2 Rocket 4.4 22:57:13 10° NNW 23:03:01 82° W 23:07:51 16° S
Cosmos 1603 4.1 22:59:14 10° NNW 23:04:47 60° WSW 23:09:01 17° S
SPOT 1/Viking Rocket 3.5 23:04:06 20° SSE 23:07:43 86° ENE 23:12:53 10° NNW
Cosmos 2123 Rocket 4.0 23:01:45 10° S 23:07:55 85° W 23:14:11 10° N
Terra 2.4 23:07:16 23° SE 23:09:47 42° ENE 23:14:17 10° N
ARGOS 3.5 23:05:26 15° S 23:09:59 63° WSW 23:15:22 10° NNW
Cosmos 1455 3.5 23:08:03 10° NNE 23:11:20 26° ENE 23:12:26 22° ESE
Cosmos 332 Rocket 4.4 23:09:34 10° NNW 23:14:21 53° WSW 23:17:42 19° S
USA 234 3.2 23:11:31 10° NE 23:18:04 73° SE 23:24:36 10° SW
Cosmos 1943 3.2 23:13:12 10° NNW 23:18:53 90° NE 23:22:12 26° SSE
Cosmos 2151 2.9 23:19:27 25° S 23:21:52 77° E 23:26:11 10° N
Cosmos 304 Rocket 4.3 23:17:35 10° N 23:22:14 47° ENE 23:24:23 28° ESE
Cosmos 2285 Rocket 4.3 23:19:53 10° NNW 23:26:09 58° ENE 23:29:42 26° SE
deb Chang Zheng 4 4.2 23:24:21 10° NNE 23:28:25 37° E 23:29:24 32° SE
Cosmos 1725 Rocket 4.4 23:24:06 10° NNW 23:30:13 59° W 23:35:04 16° SSW
Tiangong 1 0.9 23:29:02 10° W 23:31:32 59° SW 23:31:32 59° SW
SME Rocket 4.4 23:32:07 22° E 23:33:37 27° ENE 23:37:38 10° N
PSLV R/B 4.2 23:34:57 30° ENE 23:34:57 30° ENE 23:37:24 10° N
Cosmos 1500 Rocket 4.0 23:34:24 18° SSW 23:37:35 60° W 23:42:00 10° N
SL-19 R/B 4.3 23:33:12 10° NNE 23:38:31 59° ESE 23:41:12 30° S
Cosmos 1503 Rocket 3.9 23:36:35 24° S 23:39:42 74° ESE 23:44:52 10° NNE
CZ-2C R/B 4.5 23:37:56 10° ENE 23:40:28 13° E 23:40:52 13° E
Abrixas 3.4 23:39:06 10° WSW 23:40:47 33° WSW 23:40:47 33° WSW
Spot 4 4.3 23:42:03 32° ESE 23:43:51 48° ENE 23:48:32 10° N
Cosmos 1666 Rocket 4.4 23:45:24 32° ESE 23:46:01 33° E 23:50:02 10° NNE
CARTOSAT-1 3.6 23:46:24 39° S 23:47:56 77° WSW 23:52:16 10° NNW
Cosmos 540 Rocket 3.4 23:43:50 10° NNW 23:49:01 74° ENE 23:50:56 39° SE
CZ-4B R/B 3.9 23:43:59 10° NNE 23:49:05 47° E 23:50:35 37° SE
Cosmos 1703 3.5 23:48:32 35° SSW 23:50:05 69° W 23:54:05 10° N
H-2A R/B 3.1 23:48:33 19° SSW 23:51:54 40° W 23:57:01 10° NNW
Cosmos 968 Rocket 4.3 23:52:54 31° ESE 23:53:35 32° E 23:58:13 10° NE
